Location: Overspoor
(51.4747°N, 5.6641°E)
Time: 11:42:46
(UTC+02:00)

YUBILEINY - Visible Passes

Search period start: 30 June 2022 00:00
Search period end: 10 July 2022 00:00
Orbit: 1479 x 1507 km, 82.5° (Epoch: 29 June)

Date Brightness Start Highest point End Pass type
(mag) Time Alt. Az. Time Alt. Az. Time Alt. Az.
30 Jun ? 02:53:12 10° NNE 02:56:57 13° NE 03:00:40 10° ENE visible
01 Jul ? 03:59:12 10° N 04:06:29 27° NE 04:13:40 10° ESE visible
02 Jul ? 03:10:06 10° N 03:15:40 18° NE 03:21:12 10° E visible
03 Jul ? 02:21:48 10° NNE 02:24:26 11° NNE 02:27:01 10° NE visible
03 Jul ? 04:16:39 10° N 04:24:42 37° ENE 04:32:39 10° SE visible
04 Jul ? 03:27:20 10° N 03:34:11 24° NE 03:40:57 10° ESE visible
04 Jul ? 22:37:06 10° NW 22:37:41 10° NNW 22:38:15 10° NNW visible
05 Jul ? 02:38:22 10° N 02:43:15 15° NE 02:48:05 10° ENE visible
05 Jul ? 04:34:09 10° N 04:42:44 51° ENE 04:51:11 10° SE visible
06 Jul ? 03:44:44 10° N 03:52:29 33° ENE 04:00:08 10° ESE visible
07 Jul ? 02:55:30 10° N 03:01:51 21° NE 03:08:07 10° E visible
08 Jul ? 02:06:42 10° N 02:10:46 14° NE 02:14:48 10° ENE visible
08 Jul ? 04:02:12 10° N 04:10:35 45° ENE 04:18:51 10° SE visible
09 Jul ? 03:12:50 10° N 03:20:13 29° ENE 03:27:32 10° ESE visible
